,,Stat6,,Stat2,,Stat8,,Stat9,,Stat10,,Wind1,,Wind1,
time,status,PA1M_AVG,status,PR1M_SUM,status,RH1M_AVG,status,SR1M_AVG,status,TA1M_AVG,status,W1dAve1m,status,W1sAve1m,
2009-02-15, 00:00:00,VALID,917.553,VALID,0,VALID,100,VALID,-0.0169808,VALID,18.9858,VALID,6,VALID,0.0926599,
2009-02-15, 00:01:00,VALID,917.565,VALID,0,VALID,100,VALID,0,VALID,18.8982,VALID,16,VALID,0.0529726,
2009-02-15, 00:02:00,VALID,917.569,VALID,0,VALID,100,VALID,-0.0339617,VALID,18.8269,VALID,25,VALID,0.00130208,
2009-02-15, 00:03:00,VALID,917.563,VALID,0,VALID,100,VALID,-0.0509425,VALID,18.8201,VALID,29,VALID,0,
2009-02-15, 00:04:00,VALID,917.56,VALID,0,VALID,100,VALID,-0.0169808,VALID,18.8723,VALID,35,VALID,0,
2009-02-15, 00:05:00,VALID,917.543,VALID,0,VALID,100,VALID,-0.0509425,VALID,18.892,VALID,30,VALID,0,
2009-02-15, 00:06:00,VALID,917.556,VALID,0,VALID,100,VALID,-0.0339617,VALID,18.8818,VALID,32,VALID,0,
2009-02-15, 00:07:00,VALID,917.565,VALID,0,VALID,100,VALID,-0.0169808,VALID,18.9536,VALID,29,VALID,0,
2009-02-15, 00:08:00,VALID,917.575,VALID,0,VALID,100,VALID,-0.0509425,VALID,18.9861,VALID,27,VALID,0,
2009-02-15, 00:09:00,VALID,917.581,VALID,0,VALID,100,VALID,-0.0339617,VALID,18.9858,VALID,29,VALID,0,
2009-02-15, 00:10:00,VALID,917.577,VALID,0,VALID,100,VALID,-0.0679233,VALID,18.9728,VALID,29,VALID,0,
2009-02-15, 00:11:00,VALID,917.582,VALID,0,VALID,100,VALID,-0.0169808,VALID,18.9569,VALID,25,VALID,0,
2009-02-15, 00:12:00,VALID,917.579,VALID,0,VALID,100,VALID,-0.0679233,VALID,18.8653,VALID,31,VALID,0,
2009-02-15, 00:13:00,VALID,917.582,VALID,0,VALID,100,VALID,-0.0169808,VALID,18.8266,VALID,30,VALID,0,
2009-02-15, 00:14:00,VALID,917.599,VALID,0,VALID,100,VALID,-0.0339617,VALID,18.8658,VALID,27,VALID,0,
2009-02-15, 00:15:00,VALID,917.6,VALID,0,VALID,100,VALID,-0.0339617,VALID,18.9015,VALID,26,VALID,0,
2009-02-15, 00:16:00,VALID,917.595,VALID,0,VALID,100,VALID,-0.0509425,VALID,18.9082,VALID,25,VALID,0,
2009-02-15, 00:17:00,VALID,917.575,VALID,0,VALID,100,VALID,-0.0339617,VALID,18.8855,VALID,27,VALID,0,
2009-02-15, 00:18:00,VALID,917.567,VALID,0,VALID,100,VALID,-0.0169808,VALID,18.8558,VALID,19,VALID,0.059593,
2009-02-15, 00:19:00,VALID,917.569,VALID,0,VALID,100,VALID,-0.0339617,VALID,18.9075,VALID,17,VALID,0.0572311,
2009-02-15, 00:20:00,VALID,917.557,VALID,0,VALID,100,VALID,-0.0339617,VALID,18.9369,VALID,22,VALID,0.0368823,
2009-02-15, 00:21:00,VALID,917.523,VALID,0,VALID,100,VALID,-0.0679233,VALID,18.9344,VALID,20,VALID,0,
2009-02-15, 00:22:00,VALID,917.503,VALID,0,VALID,100,VALID,-0.0509425,VALID,18.9469,VALID,19,VALID,0,
2009-02-15, 00:23:00,VALID,917.508,VALID,0,VALID,100,VALID,-0.0339617,VALID,18.9861,VALID,3,VALID,0,
2009-02-15, 00:24:00,VALID,917.484,VALID,0,VALID,100,VALID,-0.0339617,VALID,19.002,VALID,20,VALID,0,
2009-02-15, 00:25:00,VALID,917.462,VALID,0,VALID,100,VALID,-0.0849042,VALID,19.0053,VALID,21,VALID,0,
2009-02-15, 00:26:00,VALID,917.435,VALID,0,VALID,100,VALID,-0.0679233,VALID,18.9758,VALID,22,VALID,0,
2009-02-15, 00:27:00,VALID,917.423,VALID,0,VALID,100,VALID,-0.0509425,VALID,18.9309,VALID,29,VALID,0.072311,
2009-02-15, 00:28:00,VALID,917.418,VALID,0,VALID,100,VALID,-0.0509425,VALID,18.8982,VALID,24,VALID,0,
2009-02-15, 00:29:00,VALID,917.408,VALID,0,VALID,100,VALID,-0.0169808,VALID,18.9205,VALID,23,VALID,0.0751488,
2009-02-15, 00:30:00,VALID,917.417,VALID,0,VALID,100,VALID,-0.0339617,VALID,18.911,VALID,24,VALID,0,
2009-02-15, 00:31:00,VALID,917.44,VALID,0,VALID,100,VALID,0,VALID,18.907,VALID,16,VALID,0,
2009-02-15, 00:32:00,VALID,917.451,VALID,0,VALID,100,VALID,0,VALID,18.9175,VALID,18,VALID,0,
2009-02-15, 00:33:00,VALID,917.439,VALID,0,VALID,100,VALID,0,VALID,18.9107,VALID,17,VALID,0,
2009-02-15, 00:34:00,VALID,917.426,VALID,0,VALID,100,VALID,0,VALID,18.9107,VALID,17,VALID,0,
2009-02-15, 00:35:00,VALID,917.414,VALID,0,VALID,100,VALID,0.0169808,VALID,18.898,VALID,17,VALID,0,
2009-02-15, 00:36:00,VALID,917.4,VALID,0,VALID,100,VALID,-0.0339617,VALID,18.9075,VALID,15,VALID,0,
2009-02-15, 00:37:00,VALID,917.39,VALID,0,VALID,100,VALID,0,VALID,18.9237,VALID,11,VALID,0,
2009-02-15, 00:38:00,VALID,917.406,VALID,0,VALID,100,VALID,-0.0849042,VALID,18.9217,VALID,11,VALID,0,
2009-02-15, 00:39:00,VALID,917.403,VALID,0,VALID,100,VALID,-0.101885,VALID,18.8834,VALID,11,VALID,0,
2009-02-15, 00:40:00,VALID,917.399,VALID,0,VALID,100,VALID,-0.101885,VALID,18.8475,VALID,11,VALID,0,
2009-02-15, 00:41:00,VALID,917.392,VALID,0,VALID,100,VALID,-0.0849042,VALID,18.9154,VALID,11,VALID,0,
2009-02-15, 00:42:00,VALID,917.38,VALID,0,VALID,100,VALID,-0.101885,VALID,18.9676,VALID,11,VALID,0,
2009-02-15, 00:43:00,VALID,917.361,VALID,0,VALID,100,VALID,-0.101885,VALID,18.9773,VALID,11,VALID,0,
2009-02-15, 00:44:00,VALID,917.349,VALID,0,VALID,100,VALID,-0.101885,VALID,18.99,VALID,11,VALID,0,
2009-02-15, 00:45:00,VALID,917.328,VALID,0,VALID,100,VALID,-0.101885,VALID,19.013,VALID,16,VALID,0.00093006,
2009-02-15, 00:46:00,VALID,917.323,VALID,0,VALID,100,VALID,-0.101885,VALID,19.0292,VALID,26,VALID,0.0606971,
2009-02-15, 00:47:00,VALID,917.328,VALID,0,VALID,100,VALID,-0.101885,VALID,19,VALID,27,VALID,0,
2009-02-15, 00:48:00,VALID,917.347,VALID,0,VALID,100,VALID,-0.118866,VALID,19.0132,VALID,24,VALID,0.00114329,
2009-02-15, 00:49:00,VALID,917.365,VALID,0,VALID,100,VALID,-0.0849042,VALID,19.0292,VALID,24,VALID,0,
2009-02-15, 00:50:00,VALID,917.392,VALID,0,VALID,100,VALID,-0.101885,VALID,18.9905,VALID,24,VALID,0,
2009-02-15, 00:51:00,VALID,917.407,VALID,0,VALID,100,VALID,-0.118866,VALID,18.9808,VALID,24,VALID,0,
2009-02-15, 00:52:00,VALID,917.398,VALID,0,VALID,100,VALID,-0.135847,VALID,18.9416,VALID,24,VALID,0,
2009-02-15, 00:53:00,VALID,917.4,VALID,0,VALID,100,VALID,-0.0679233,VALID,18.9369,VALID,24,VALID,0,
2009-02-15, 00:54:00,VALID,917.402,VALID,0,VALID,100,VALID,-0.0169808,VALID,18.9566,VALID,24,VALID,0,
2009-02-15, 00:55:00,VALID,917.391,VALID,0,VALID,100,VALID,-0.0169808,VALID,18.9367,VALID,24,VALID,0,
2009-02-15, 00:56:00,VALID,917.37,VALID,0,VALID,100,VALID,0,VALID,18.9209,VALID,24,VALID,0,
2009-02-15, 00:57:00,VALID,917.342,VALID,0,VALID,100,VALID,0,VALID,18.9239,VALID,24,VALID,0,
2009-02-15, 00:58:00,VALID,917.307,VALID,0,VALID,100,VALID,0,VALID,18.8424,VALID,30,VALID,0.0850074,
2009-02-15, 00:59:00,VALID,917.292,VALID,0,VALID,100,VALID,0.0339617,VALID,18.8095,VALID,43,VALID,0.0294331,
2009-02-15, 01:00:00,VALID,917.293,VALID,0,VALID,100,VALID,0,VALID,18.8104,VALID,43,VALID,0,
2009-02-15, 01:01:00,VALID,917.281,VALID,0,VALID,100,VALID,0.0509425,VALID,18.8292,VALID,43,VALID,0,
2009-02-15, 01:02:00,VALID,917.257,VALID,0,VALID,100,VALID,0,VALID,18.8623,VALID,43,VALID,0,
2009-02-15, 01:03:00,VALID,917.264,VALID,0,VALID,100,VALID,0.0169808,VALID,18.7712,VALID,42,VALID,0,
2009-02-15, 01:04:00,VALID,917.257,VALID,0,VALID,100,VALID,0.0509425,VALID,18.7543,VALID,17,VALID,0,
2009-02-15, 01:05:00,VALID,917.259,VALID,0,VALID,100,VALID,0.0339617,VALID,18.8027,VALID,8,VALID,0,
2009-02-15, 01:06:00,VALID,917.265,VALID,0,VALID,100,VALID,0.0339617,VALID,18.8167,VALID,8,VALID,0,
2009-02-15, 01:07:00,VALID,917.253,VALID,0,VALID,100,VALID,0.0339617,VALID,18.8359,VALID,8,VALID,0,
2009-02-15, 01:08:00,VALID,917.254,VALID,0,VALID,100,VALID,-0.0679233,VALID,18.8144,VALID,8,VALID,0,
2009-02-15, 01:09:00,VALID,917.259,VALID,0,VALID,100,VALID,-0.0849042,VALID,18.7951,VALID,8,VALID,0,
2009-02-15, 01:10:00,VALID,917.273,VALID,0,VALID,100,VALID,-0.0849042,VALID,18.7592,VALID,8,VALID,0,
2009-02-15, 01:11:00,VALID,917.266,VALID,0,VALID,100,VALID,-0.101885,VALID,18.7432,VALID,8,VALID,0,
2009-02-15, 01:12:00,VALID,917.25,VALID,0,VALID,100,VALID,-0.101885,VALID,18.7856,VALID,359,VALID,0,
2009-02-15, 01:13:00,VALID,917.25,VALID,0,VALID,100,VALID,-0.101885,VALID,18.8211,VALID,346,VALID,0,
2009-02-15, 01:14:00,VALID,917.238,VALID,0,VALID,100,VALID,-0.0849042,VALID,18.87,VALID,346,VALID,0,
2009-02-15, 01:15:00,VALID,917.223,VALID,0,VALID,100,VALID,-0.0849042,VALID,18.8795,VALID,346,VALID,0,
2009-02-15, 01:16:00,VALID,917.196,VALID,0,VALID,100,VALID,-0.0849042,VALID,18.8992,VALID,346,VALID,0,
2009-02-15, 01:17:00,VALID,917.179,VALID,0,VALID,100,VALID,-0.101885,VALID,18.8959,VALID,346,VALID,0,
2009-02-15, 01:18:00,VALID,917.161,VALID,0,VALID,100,VALID,-0.101885,VALID,18.8605,VALID,346,VALID,0,
2009-02-15, 01:19:00,VALID,917.137,VALID,0,VALID,100,VALID,-0.101885,VALID,18.844,VALID,346,VALID,0,
2009-02-15, 01:20:00,VALID,917.136,VALID,0,VALID,100,VALID,-0.0849042,VALID,18.8667,VALID,346,VALID,0,
2009-02-15, 01:21:00,VALID,917.121,VALID,0,VALID,100,VALID,-0.118866,VALID,18.8962,VALID,346,VALID,0,
2009-02-15, 01:22:00,VALID,917.109,VALID,0,VALID,100,VALID,-0.118866,VALID,18.8607,VALID,346,VALID,0,
2009-02-15, 01:23:00,VALID,917.105,VALID,0,VALID,100,VALID,-0.0169808,VALID,18.8493,VALID,346,VALID,0,
2009-02-15, 01:24:00,VALID,917.108,VALID,0,VALID,100,VALID,-0.0169808,VALID,18.8845,VALID,346,VALID,0,
2009-02-15, 01:25:00,VALID,917.105,VALID,0,VALID,100,VALID,0,VALID,18.7909,VALID,346,VALID,0,
2009-02-15, 01:26:00,VALID,917.097,VALID,0,VALID,100,VALID,0.0169808,VALID,18.6061,VALID,357,VALID,0,
2009-02-15, 01:27:00,VALID,917.107,VALID,0,VALID,100,VALID,-0.0169808,VALID,18.5542,VALID,24,VALID,0,
2009-02-15, 01:28:00,VALID,917.097,VALID,0,VALID,100,VALID,0,VALID,18.622,VALID,24,VALID,0,
2009-02-15, 01:29:00,VALID,917.108,VALID,0,VALID,100,VALID,-0.0169808,VALID,18.7288,VALID,25,VALID,0,
2009-02-15, 01:30:00,VALID,917.122,VALID,0,VALID,100,VALID,0,VALID,18.739,VALID,25,VALID,0,
2009-02-15, 01:31:00,VALID,917.113,VALID,0,VALID,100,VALID,-0.0169808,VALID,18.6936,VALID,25,VALID,0,
2009-02-15, 01:32:00,VALID,917.107,VALID,0,VALID,100,VALID,0,VALID,18.6156,VALID,25,VALID,0,
2009-02-15, 01:33:00,VALID,917.081,VALID,0,VALID,100,VALID,-0.0169808,VALID,18.5574,VALID,25,VALID,0,
2009-02-15, 01:34:00,VALID,917.061,VALID,0,VALID,100,VALID,0.0169808,VALID,18.5604,VALID,25,VALID,0,
2009-02-15, 01:35:00,VALID,917.027,VALID,0,VALID,100,VALID,0,VALID,18.5701,VALID,25,VALID,0,
2009-02-15, 01:36:00,VALID,917.015,VALID,0,VALID,100,VALID,0.0169808,VALID,18.5701,VALID,25,VALID,0,
2009-02-15, 01:37:00,VALID,917.009,VALID,0,VALID,100,VALID,0,VALID,18.5764,VALID,25,VALID,0,
2009-02-15, 01:38:00,VALID,916.987,VALID,0,VALID,100,VALID,0.0169808,VALID,18.5178,VALID,25,VALID,0.0435014,
2009-02-15, 01:39:00,VALID,916.995,VALID,0,VALID,100,VALID,0,VALID,18.4856,VALID,23,VALID,0,
2009-02-15, 01:40:00,VALID,916.977,VALID,0,VALID,100,VALID,0,VALID,18.5345,VALID,25,VALID,0,
2009-02-15, 01:41:00,VALID,916.953,VALID,0,VALID,100,VALID,0,VALID,18.6253,VALID,24,VALID,0,
2009-02-15, 01:42:00,VALID,916.918,VALID,0,VALID,100,VALID,0.0509425,VALID,18.7216,VALID,24,VALID,0,
2009-02-15, 01:43:00,VALID,916.887,VALID,0,VALID,100,VALID,0,VALID,18.7511,VALID,24,VALID,0,
2009-02-15, 01:44:00,VALID,916.874,VALID,0,VALID,100,VALID,0.0339617,VALID,18.7538,VALID,24,VALID,0,
2009-02-15, 01:45:00,VALID,916.867,VALID,0,VALID,100,VALID,0.0679233,VALID,18.7643,VALID,24,VALID,0,
2009-02-15, 01:46:00,VALID,916.868,VALID,0,VALID,100,VALID,0.0169808,VALID,18.8,VALID,24,VALID,0,
2009-02-15, 01:47:00,VALID,916.878,VALID,0,VALID,100,VALID,0.0169808,VALID,18.8514,VALID,25,VALID,0,
2009-02-15, 01:48:00,VALID,916.86,VALID,0,VALID,100,VALID,0.0679233,VALID,18.9265,VALID,21,VALID,0,
2009-02-15, 01:49:00,VALID,916.863,VALID,0,VALID,100,VALID,0.0169808,VALID,18.9557,VALID,22,VALID,0,
2009-02-15, 01:50:00,VALID,916.846,VALID,0,VALID,100,VALID,-0.0169808,VALID,18.9457,VALID,22,VALID,0,
2009-02-15, 01:51:00,VALID,916.845,VALID,0,VALID,100,VALID,-0.0169808,VALID,18.9953,VALID,22,VALID,0,
2009-02-15, 01:52:00,VALID,916.824,VALID,0,VALID,100,VALID,-0.0169808,VALID,19.0305,VALID,22,VALID,0,
2009-02-15, 01:53:00,VALID,916.799,VALID,0,VALID,100,VALID,0,VALID,19.0432,VALID,22,VALID,0,
2009-02-15, 01:54:00,VALID,916.755,VALID,0,VALID,100,VALID,-0.0169808,VALID,19.0432,VALID,22,VALID,0,
2009-02-15, 01:55:00,VALID,916.718,VALID,0,VALID,100,VALID,0,VALID,19.0407,VALID,23,VALID,0,
2009-02-15, 01:56:00,VALID,916.726,VALID,0,VALID,100,VALID,-0.0169808,VALID,19.0372,VALID,12,VALID,0,
2009-02-15, 01:57:00,VALID,916.716,VALID,0,VALID,100,VALID,0.0169808,VALID,19.044,VALID,11,VALID,0,
2009-02-15, 01:58:00,VALID,916.706,VALID,0,VALID,100,VALID,0,VALID,19.0532,VALID,11,VALID,0,
2009-02-15, 01:59:00,VALID,916.718,VALID,0,VALID,100,VALID,-0.0169808,VALID,19.0692,VALID,11,VALID,0,
2009-02-15, 02:00:00,VALID,916.718,VALID,0,VALID,100,VALID,-0.0339617,VALID,19.0402,VALID,11,VALID,0,
2009-02-15, 02:01:00,VALID,916.711,VALID,0,VALID,100,VALID,0,VALID,18.9761,VALID,11,VALID,0,
2009-02-15, 02:02:00,VALID,916.698,VALID,0,VALID,100,VALID,0,VALID,18.9332,VALID,11,VALID,0,
2009-02-15, 02:03:00,VALID,916.656,VALID,0,VALID,100,VALID,-0.0169808,VALID,18.9432,VALID,11,VALID,0,
2009-02-15, 02:04:00,VALID,916.638,VALID,0,VALID,100,VALID,0.0339617,VALID,18.9584,VALID,11,VALID,0,
2009-02-15, 02:05:00,VALID,916.606,VALID,0,VALID,100,VALID,0,VALID,18.9918,VALID,11,VALID,0,
2009-02-15, 02:06:00,VALID,916.61,VALID,0,VALID,100,VALID,0.0169808,VALID,18.9879,VALID,19,VALID,0,
2009-02-15, 02:07:00,VALID,916.627,VALID,0,VALID,100,VALID,0,VALID,19.0113,VALID,24,VALID,0,
2009-02-15, 02:08:00,VALID,916.651,VALID,0,VALID,100,VALID,-0.0679233,VALID,18.999,VALID,17,VALID,0,
2009-02-15, 02:09:00,VALID,916.635,VALID,0,VALID,100,VALID,-0.101885,VALID,19.0255,VALID,17,VALID,0,
2009-02-15, 02:10:00,VALID,916.622,VALID,0,VALID,100,VALID,-0.101885,VALID,19.0347,VALID,17,VALID,0,
2009-02-15, 02:11:00,VALID,916.615,VALID,0,VALID,100,VALID,-0.0849042,VALID,19.0639,VALID,17,VALID,0,
2009-02-15, 02:12:00,VALID,916.623,VALID,0,VALID,100,VALID,-0.118866,VALID,19.0866,VALID,17,VALID,0,
2009-02-15, 02:13:00,VALID,916.632,VALID,0,VALID,100,VALID,-0.0509425,VALID,19.0998,VALID,17,VALID,0,
2009-02-15, 02:14:00,VALID,916.623,VALID,0,VALID,100,VALID,-0.0849042,VALID,19.1093,VALID,17,VALID,0,
2009-02-15, 02:15:00,VALID,916.627,VALID,0,VALID,100,VALID,-0.0849042,VALID,19.0996,VALID,17,VALID,0,
2009-02-15, 02:16:00,VALID,916.618,VALID,0,VALID,100,VALID,-0.0849042,VALID,19.044,VALID,17,VALID,0,
2009-02-15, 02:17:00,VALID,916.623,VALID,0,VALID,100,VALID,-0.0679233,VALID,19.0642,VALID,17,VALID,0,
2009-02-15, 02:18:00,VALID,916.625,VALID,0,VALID,100,VALID,-0.0849042,VALID,19.1161,VALID,17,VALID,0,
2009-02-15, 02:19:00,VALID,916.629,VALID,0,VALID,100,VALID,-0.0679233,VALID,19.1066,VALID,17,VALID,0,
2009-02-15, 02:20:00,VALID,916.611,VALID,0,VALID,100,VALID,-0.0509425,VALID,19.038,VALID,17,VALID,0,
2009-02-15, 02:21:00,VALID,916.589,VALID,0,VALID,100,VALID,-0.0849042,VALID,19.0639,VALID,17,VALID,0,
2009-02-15, 02:22:00,VALID,916.569,VALID,0,VALID,100,VALID,-0.101885,VALID,19.0739,VALID,18,VALID,0,
2009-02-15, 02:23:00,VALID,916.56,VALID,0,VALID,100,VALID,-0.0169808,VALID,19.0919,VALID,20,VALID,0,
2009-02-15, 02:24:00,VALID,916.55,VALID,0,VALID,100,VALID,0,VALID,19.1086,VALID,20,VALID,0,
2009-02-15, 02:25:00,VALID,916.543,VALID,0,VALID,100,VALID,-0.0169808,VALID,19.1181,VALID,20,VALID,0,
2009-02-15, 02:26:00,VALID,916.534,VALID,0,VALID,100,VALID,0,VALID,19.1376,VALID,20,VALID,0,
2009-02-15, 02:27:00,VALID,916.515,VALID,0,VALID,100,VALID,0,VALID,19.15,VALID,20,VALID,0,
2009-02-15, 02:28:00,VALID,916.487,VALID,0,VALID,100,VALID,-0.0169808,VALID,19.1765,VALID,20,VALID,0,
2009-02-15, 02:29:00,VALID,916.453,VALID,0,VALID,100,VALID,0.0169808,VALID,19.1994,VALID,20,VALID,0,
2009-02-15, 02:30:00,VALID,916.424,VALID,0,VALID,100,VALID,0,VALID,19.1959,VALID,20,VALID,0,
2009-02-15, 02:31:00,VALID,916.418,VALID,0,VALID,100,VALID,-0.0169808,VALID,19.1989,VALID,20,VALID,0,
2009-02-15, 02:32:00,VALID,916.421,VALID,0,VALID,100,VALID,-0.0169808,VALID,19.2054,VALID,20,VALID,0,
2009-02-15, 02:33:00,VALID,916.433,VALID,0,VALID,100,VALID,0,VALID,19.2147,VALID,20,VALID,0,
2009-02-15, 02:34:00,VALID,916.454,VALID,0,VALID,100,VALID,0.0339617,VALID,19.2341,VALID,20,VALID,0,
2009-02-15, 02:35:00,VALID,916.472,VALID,0,VALID,100,VALID,0.0169808,VALID,19.2638,VALID,22,VALID,0,
2009-02-15, 02:36:00,VALID,916.495,VALID,0,VALID,100,VALID,0.0169808,VALID,19.277,VALID,28,VALID,0,
2009-02-15, 02:37:00,VALID,916.497,VALID,0,VALID,100,VALID,0.0339617,VALID,19.2768,VALID,28,VALID,0,
2009-02-15, 02:38:00,VALID,916.491,VALID,0,VALID,100,VALID,0,VALID,19.2611,VALID,28,VALID,0,
2009-02-15, 02:39:00,VALID,916.476,VALID,0,VALID,100,VALID,0,VALID,19.2546,VALID,28,VALID,0,
2009-02-15, 02:40:00,VALID,916.466,VALID,0,VALID,100,VALID,0,VALID,19.2418,VALID,28,VALID,0,
2009-02-15, 02:41:00,VALID,916.463,VALID,0,VALID,100,VALID,-0.0169808,VALID,19.2354,VALID,28,VALID,0,
2009-02-15, 02:42:00,VALID,916.444,VALID,0,VALID,100,VALID,0,VALID,19.2321,VALID,28,VALID,0,
2009-02-15, 02:43:00,VALID,916.432,VALID,0,VALID,100,VALID,0,VALID,19.2254,VALID,28,VALID,0,
2009-02-15, 02:44:00,VALID,916.446,VALID,0,VALID,100,VALID,-0.0169808,VALID,19.2092,VALID,26,VALID,0,
2009-02-15, 02:45:00,VALID,916.462,VALID,0,VALID,100,VALID,0,VALID,19.2516,VALID,353,VALID,0.0376736,
2009-02-15, 02:46:00,VALID,916.479,VALID,0,VALID,100,VALID,0,VALID,19.3135,VALID,357,VALID,0,
2009-02-15, 02:47:00,VALID,916.502,VALID,0,VALID,100,VALID,0.0339617,VALID,19.3714,VALID,14,VALID,0,
2009-02-15, 02:48:00,VALID,916.496,VALID,0,VALID,100,VALID,-0.0169808,VALID,19.4043,VALID,14,VALID,0,
2009-02-15, 02:49:00,VALID,916.491,VALID,0,VALID,100,VALID,0,VALID,19.4138,VALID,14,VALID,0,
2009-02-15, 02:50:00,VALID,916.482,VALID,0,VALID,100,VALID,-0.0169808,VALID,19.4268,VALID,5,VALID,0,
2009-02-15, 02:51:00,VALID,916.465,VALID,0,VALID,100,VALID,0,VALID,19.4427,VALID,341,VALID,0,
2009-02-15, 02:52:00,VALID,916.455,VALID,0,VALID,100,VALID,0,VALID,19.4625,VALID,341,VALID,0,
2009-02-15, 02:53:00,VALID,916.447,VALID,0,VALID,100,VALID,-0.0169808,VALID,19.4819,VALID,341,VALID,0,
2009-02-15, 02:54:00,VALID,916.43,VALID,0,VALID,100,VALID,0,VALID,19.4657,VALID,341,VALID,0,
2009-02-15, 02:55:00,VALID,916.416,VALID,0,VALID,100,VALID,0.0169808,VALID,19.446,VALID,341,VALID,0,
2009-02-15, 02:56:00,VALID,916.428,VALID,0,VALID,100,VALID,0,VALID,19.4133,VALID,341,VALID,0,
2009-02-15, 02:57:00,VALID,916.438,VALID,0,VALID,100,VALID,-0.0169808,VALID,19.3686,VALID,341,VALID,0,
2009-02-15, 02:58:00,VALID,916.441,VALID,0,VALID,100,VALID,-0.0339617,VALID,19.3554,VALID,341,VALID,0,
2009-02-15, 02:59:00,VALID,916.433,VALID,0,VALID,100,VALID,0.0169808,VALID,19.3359,VALID,341,VALID,0,
2009-02-15, 03:00:00,VALID,916.422,VALID,0,VALID,100,VALID,0,VALID,19.3197,VALID,341,VALID,0,
2009-02-15, 03:01:00,VALID,916.425,VALID,0,VALID,100,VALID,-0.0169808,VALID,19.3105,VALID,341,VALID,0,
2009-02-15, 03:02:00,VALID,916.428,VALID,0,VALID,100,VALID,0,VALID,19.307,VALID,341,VALID,0,
2009-02-15, 03:03:00,VALID,916.432,VALID,0,VALID,100,VALID,0.0169808,VALID,19.271,VALID,341,VALID,0,
2009-02-15, 03:04:00,VALID,916.433,VALID,0,VALID,100,VALID,0,VALID,19.2678,VALID,341,VALID,0,
2009-02-15, 03:05:00,VALID,916.412,VALID,0,VALID,100,VALID,-0.0169808,VALID,19.2351,VALID,341,VALID,0,
2009-02-15, 03:06:00,VALID,916.392,VALID,0,VALID,100,VALID,0,VALID,19.1737,VALID,341,VALID,0,
2009-02-15, 03:07:00,VALID,916.389,VALID,0,VALID,100,VALID,-0.0169808,VALID,19.1283,VALID,341,VALID,0,
2009-02-15, 03:08:00,VALID,916.393,VALID,0,VALID,100,VALID,-0.0169808,VALID,19.0891,VALID,341,VALID,0,
2009-02-15, 03:09:00,VALID,916.41,VALID,0,VALID,100,VALID,0,VALID,19.0899,VALID,341,VALID,0,
2009-02-15, 03:10:00,VALID,916.403,VALID,0,VALID,100,VALID,0,VALID,19.0796,VALID,341,VALID,0,
2009-02-15, 03:11:00,VALID,916.39,VALID,0,VALID,100,VALID,0,VALID,19.0569,VALID,341,VALID,0,
2009-02-15, 03:12:00,VALID,916.379,VALID,0,VALID,100,VALID,-0.0169808,VALID,19.0375,VALID,341,VALID,0,
2009-02-15, 03:13:00,VALID,916.378,VALID,0,VALID,100,VALID,0,VALID,19.021,VALID,341,VALID,0,
2009-02-15, 03:14:00,VALID,916.357,VALID,0,VALID,100,VALID,0.0169808,VALID,19.0277,VALID,341,VALID,0,
2009-02-15, 03:15:00,VALID,916.355,VALID,0,VALID,100,VALID,0,VALID,19.0472,VALID,341,VALID,0,
2009-02-15, 03:16:00,VALID,916.363,VALID,0,VALID,100,VALID,0,VALID,18.9566,VALID,341,VALID,0,
2009-02-15, 03:17:00,VALID,916.357,VALID,0,VALID,100,VALID,0.0169808,VALID,18.9337,VALID,341,VALID,0,
2009-02-15, 03:18:00,VALID,916.357,VALID,0,VALID,100,VALID,0.0169808,VALID,18.9369,VALID,341,VALID,0,
2009-02-15, 03:19:00,VALID,916.35,VALID,0,VALID,100,VALID,0.0169808,VALID,18.9205,VALID,341,VALID,0,
2009-02-15, 03:20:00,VALID,916.337,VALID,0,VALID,100,VALID,-0.0169808,VALID,18.8493,VALID,341,VALID,0,
2009-02-15, 03:21:00,VALID,916.316,VALID,0,VALID,100,VALID,0,VALID,18.8296,VALID,341,VALID,0,
2009-02-15, 03:22:00,VALID,916.317,VALID,0,VALID,100,VALID,0,VALID,18.8623,VALID,341,VALID,0,
2009-02-15, 03:23:00,VALID,916.334,VALID,0,VALID,100,VALID,0,VALID,18.885,VALID,341,VALID,0,
2009-02-15, 03:24:00,VALID,916.329,VALID,0,VALID,100,VALID,0,VALID,18.8818,VALID,341,VALID,0,
2009-02-15, 03:25:00,VALID,916.316,VALID,0,VALID,100,VALID,-0.0169808,VALID,18.8778,VALID,341,VALID,0,
2009-02-15, 03:26:00,VALID,916.309,VALID,0,VALID,100,VALID,0,VALID,18.8653,VALID,341,VALID,0,
2009-02-15, 03:27:00,VALID,916.29,VALID,0,VALID,100,VALID,0,VALID,18.7747,VALID,342,VALID,0,
2009-02-15, 03:28:00,VALID,916.297,VALID,0,VALID,100,VALID,-0.0169808,VALID,18.7652,VALID,3,VALID,0,
2009-02-15, 03:29:00,VALID,916.305,VALID,0,VALID,100,VALID,-0.0169808,VALID,18.885,VALID,3,VALID,0,
2009-02-15, 03:30:00,VALID,916.306,VALID,0,VALID,100,VALID,0,VALID,18.9175,VALID,3,VALID,0,
2009-02-15, 03:31:00,VALID,916.301,VALID,0,VALID,100,VALID,-0.0169808,VALID,18.9337,VALID,3,VALID,0,
2009-02-15, 03:32:00,VALID,916.292,VALID,0,VALID,100,VALID,0,VALID,18.914,VALID,3,VALID,0,
2009-02-15, 03:33:00,VALID,916.28,VALID,0,VALID,100,VALID,-0.0169808,VALID,18.8556,VALID,3,VALID,0,
2009-02-15, 03:34:00,VALID,916.287,VALID,0,VALID,100,VALID,0,VALID,18.8104,VALID,3,VALID,0,
2009-02-15, 03:35:00,VALID,916.288,VALID,0,VALID,100,VALID,0,VALID,18.739,VALID,3,VALID,0,
2009-02-15, 03:36:00,VALID,916.304,VALID,0,VALID,100,VALID,-0.0339617,VALID,18.6844,VALID,3,VALID,0,
2009-02-15, 03:37:00,VALID,916.312,VALID,0,VALID,100,VALID,-0.0169808,VALID,18.6936,VALID,3,VALID,0,
2009-02-15, 03:38:00,VALID,916.338,VALID,0,VALID,100,VALID,-0.0169808,VALID,18.7131,VALID,3,VALID,0,
2009-02-15, 03:39:00,VALID,916.346,VALID,0,VALID,100,VALID,-0.0169808,VALID,18.7455,VALID,3,VALID,0,
2009-02-15, 03:40:00,VALID,916.338,VALID,0,VALID,100,VALID,-0.0169808,VALID,18.7845,VALID,3,VALID,0,
2009-02-15, 03:41:00,VALID,916.341,VALID,0,VALID,100,VALID,-0.0169808,VALID,18.8104,VALID,3,VALID,0,
2009-02-15, 03:42:00,VALID,916.328,VALID,0,VALID,100,VALID,0,VALID,18.8299,VALID,3,VALID,0,
2009-02-15, 03:43:00,VALID,916.326,VALID,0,VALID,100,VALID,-0.0339617,VALID,18.8301,VALID,3,VALID,0,
2009-02-15, 03:44:00,VALID,916.319,VALID,0,VALID,100,VALID,-0.0339617,VALID,18.8493,VALID,3,VALID,0,
2009-02-15, 03:45:00,VALID,916.325,VALID,0,VALID,100,VALID,-0.0169808,VALID,18.8396,VALID,4,VALID,0,
2009-02-15, 03:46:00,VALID,916.348,VALID,0,VALID,100,VALID,0,VALID,18.8296,VALID,7,VALID,0,
2009-02-15, 03:47:00,VALID,916.345,VALID,0,VALID,100,VALID,-0.0169808,VALID,18.8753,VALID,7,VALID,0,
2009-02-15, 03:48:00,VALID,916.333,VALID,0,VALID,100,VALID,-0.0169808,VALID,18.8785,VALID,8,VALID,0,
2009-02-15, 03:49:00,VALID,916.325,VALID,0,VALID,100,VALID,-0.0169808,VALID,18.9269,VALID,25,VALID,0,
2009-02-15, 03:50:00,VALID,916.325,VALID,0,VALID,100,VALID,0,VALID,18.9853,VALID,25,VALID,0,
2009-02-15, 03:51:00,VALID,916.346,VALID,0,VALID,100,VALID,0,VALID,19.0115,VALID,25,VALID,0,
2009-02-15, 03:52:00,VALID,916.339,VALID,0,VALID,100,VALID,0,VALID,19.0115,VALID,25,VALID,0,
2009-02-15, 03:53:00,VALID,916.342,VALID,0,VALID,100,VALID,0,VALID,19.005,VALID,22,VALID,0,
2009-02-15, 03:54:00,VALID,916.33,VALID,0,VALID,100,VALID,-0.0169808,VALID,19.031,VALID,347,VALID,0,
2009-02-15, 03:55:00,VALID,916.318,VALID,0,VALID,100,VALID,0.0169808,VALID,19.0405,VALID,347,VALID,0,
2009-02-15, 03:56:00,VALID,916.313,VALID,0,VALID,100,VALID,0,VALID,19.0472,VALID,347,VALID,0,